• Join FlightAware (Why Join?)
  • Login
  • US Flag 
05:03AM EDT


 

Airport Tracker/Info


-or-


 

Live Flight TrackerFlight Track Log ✈ SWA3497 ✈ 17-Apr-2013 ✈ KBWI - KALB

Flight Track Log - Related Links

Times and Time Zones

All times are in EDT time to prevent confusion due to time zone crossing. See the SWA3497 flight status page for this flight to view local times or setup timezone preferences in your user account.

Time Position Orientation Groundspeed Altitude Reporting Facility
EDT Latitude Longitude Course Direction KTS MPH feet Rate Location/Type
04:50PM 39.1500 -76.6500 142° Southeast 166 191 1,800  Level Potomac TRACON
04:51PM 39.1000 -76.6000 142° Southeast 235 270 4,600 2,940 Climbing Potomac TRACON
04:54PM 39.1150 -76.4022 84° East 294 338 11,100 3,000 Climbing Washington Center
04:55PM 39.1386 -76.2714 77° East 312 359 14,100 3,060 Climbing Washington Center
04:56PM 39.1600 -76.1511 77° East 347 399 17,300 3,060 Climbing Washington Center
04:57PM 39.1772 -76.0147 81° East 372 428 20,300 2,880 Climbing Washington Center
04:58PM 39.1986 -75.8756 79° East 382 440 23,100 2,580 Climbing Washington Center
04:59PM 39.2717 -75.7767 46° Northeast 371 427 25,500 2,160 Climbing Washington Center
05:00PM 39.3531 -75.6694 46° Northeast 384 442 27,500 1,740 Climbing Washington Center
05:01PM 39.4364 -75.5672 43° Northeast 398 458 29,000 720 Climbing Washington Center
05:02PM 39.5156 -75.4625 46° Northeast 403 464 29,000  Level Washington Center
05:04PM 39.6958 -75.2253 45° Northeast 417 480 29,000  Level New York Center
05:05PM 39.7667 -75.1189 49° Northeast 412 474 29,000  Level New York Center
05:06PM 39.8456 -75.0078 47° Northeast 412 474 29,000  Level New York Center
05:07PM 39.9225 -74.9014 47° Northeast 412 474 29,000  Level New York Center
05:08PM 40.0058 -74.7761 49° Northeast 414 476 29,000  Level New York Center
05:09PM 40.0781 -74.6744 47° Northeast 414 476 29,000  Level New York Center
05:10PM 40.1633 -74.5517 48° Northeast 414 476 29,000  Level New York Center
05:11PM 40.2372 -74.4578 44° Northeast 414 476 29,000 -240 Level New York Center
05:12PM 40.3256 -74.3644 39° Northeast 403 464 28,600 -660 Descending New York Center
05:13PM 40.4053 -74.2761 40° Northeast 403 464 27,700 -1,080 Descending New York Center
05:14PM 40.5108 -74.1642 39° Northeast 408 470 26,500 -1,020 Descending New York Center
05:15PM 40.6514 -74.0183 38° Northeast 431 496 25,000 -960 Descending Boston Center
05:16PM 40.7358 -73.9272 39° Northeast 418 481 24,000 -540 Descending Boston Center
05:17PM 40.8183 -73.8333 41° Northeast 402 463 24,000  Level Boston Center
05:18PM 40.9031 -73.7308 42° Northeast 392 451 24,000 -360 Level Boston Center
05:19PM 40.9917 -73.6142 45° Northeast 397 457 23,300 -600 Descending Boston Center
05:20PM 41.0717 -73.5414 34° Northeast 397 457 22,900 -780 Descending Boston Center
05:21PM 41.1717 -73.5347 North 356 410 21,800 -1,080 Descending Boston Center
05:22PM 41.2697 -73.5336 360° North 351 404 20,800 -1,020 Descending Boston Center
05:23PM 41.3678 -73.5325 360° North 351 404 19,800 -1,080 Descending Boston Center
05:24PM 41.4761 -73.5317 360° North 351 404 18,700 -1,020 Descending Boston Center
05:25PM 41.5636 -73.5306 North 346 398 17,800 -840 Descending Boston Center
05:26PM 41.6700 -73.5294 360° North 346 398 17,100 -840 Descending Boston Center
05:27PM 41.7533 -73.5308 359° North 346 398 16,200 -1,020 Descending Boston Center
05:28PM 41.8553 -73.5300 360° North 340 391 15,100 -1,440 Descending Boston Center
05:29PM 41.9408 -73.5286 North 335 386 13,500 -1,800 Descending Boston Center
05:31PM 42.0658 -73.5281 360° North 330 380 11,000 -1,260 Descending Boston Center
05:31PM 42.1283 -73.5233 North 317 365 11,000 -60 Level Boston Center
05:32PM 42.2014 -73.5358 353° North 309 356 10,900 -840 Descending Boston Center
05:33PM 42.2739 -73.5792 336° Northwest 271 312 9,500 -1,500 Descending Boston Center
05:34PM 42.3381 -73.6225 333° Northwest 260 299 8,100 -1,500 Descending Boston Center
05:35PM 42.4039 -73.6856 325° Northwest 250 288 6,300 -1,680 Descending Boston Center
05:36PM 42.4597 -73.7317 329° Northwest 260 299 4,700 -1,620 Descending Boston Center
05:37PM 42.5303 -73.7531 347° North 258 297 3,200 -900 Descending Boston Center
05:38PM 42.6008 -73.7856 341° North 247 284 2,800 -360 Descending Boston Center
05:39PM 42.6444 -73.8061 341° North 145 167 2,500 -720 Descending Boston Center
05:40PM 42.6819 -73.8042 North 122 140 1,400 -960 Descending Boston Center
05:41PM 42.7236 -73.8081 356° North 135 155 600 -840 Descending Boston Center
05:43PM 42.7333 -73.8000 350° North  Level FlightAware Approximate